Regional Weather Roundup
Issued by NWS Goodland, KS

Home | Current Version | Previous Version | Graphics & Text | Print | Product List | Glossary On
Versions: 1 2 3 4 5 6 7 8 9 10 11 12 13 14 15 16 17 18 19 20 21 22 23 24 25 26 27 28 29 30 31 32 33 34 35 36 37 38 39 40 41 42 43 44 45 46 47 48 49 50
680
ASUS43 KGLD 200508
RWRGLD

GOODLAND FORECAST AREA HOURLY WEATHER ROUNDUP
NATIONAL WEATHER SERVICE GOODLAND KS
1100 PM MDT WED JUL 19 2017

...OFFICIAL OBSERVATIONS...

CITY           SKY/WX    TMP DP  RH WIND       PRES   REMARKS
GOODLAND KS    CLOUDY    75  59  57 S12       30.05R
HILL CITY KS   CLEAR     81  60  48 S6        30.00R
IMPERIAL NEB   CLOUDY    83  57  41 S14       29.98R
MCCOOK NEB     CLEAR     85  58  39 S15       29.97R
AKRON CO       CLOUDY    79  49  34 W8        30.11R
BURLINGTON CO  CLOUDY    74  59  59 S12       30.08S
LIMON CO       CLOUDY    69  56  62 N5        30.18R
$$

...UNOFFICIAL OBSERVATIONS...

CITY           SKY/WX    TMP DP  RH WIND       PRES   REMARKS
LENORA KS        N/A     78  32  18 MISG        N/A
NORTON KS      CLEAR     79  54  41 SE8       29.99R
SHARON SPRINGS   N/A     73  59  62 S10         N/A
TRENTON NEB      N/A     82  32  16 SW8         N/A
KIT CARSON CO    N/A     76  57  51 MISG        N/A
YUMA CO        FAIR      73  52  46 SW8       30.06S
$$




USA.gov is the U.S. government's official web portal to all federal, state and local government web resources and services.